Satellite: NOAA-14
Catalog number: 23455
Epoch time: 08191.84158619
Element set: 0215
Inclination: 098.9448 deg
RA of node: 264.0972 deg
Eccentricity: 0.0010401
Arg of perigee: 082.2523 deg
Mean anomaly: 277.9833 deg
Mean motion: 14.13743708 rev/day
Decay rate: -1.15e-06 rev/day^2
Epoch rev: 69755
Checksum: 320
Satellite: SICH-1
Catalog number: 23657
Epoch time: 08192.58312357
Element set: 434
Inclination: 082.5265 deg
RA of node: 074.2308 deg
Eccentricity: 0.0025420
Arg of perigee: 045.5917 deg
Mean anomaly: 314.7405 deg
Mean motion: 14.81590608 rev/day
Decay rate: 1.32e-06 rev/day^2
Epoch rev: 69368
Checksum: 299
Satellite: NOAA-15
Catalog number: 25338
Epoch time: 08191.76070894
Element set: 0536
Inclination: 098.5550 deg
RA of node: 183.0459 deg
Eccentricity: 0.0010293
Arg of perigee: 342.7042 deg
Mean anomaly: 017.3745 deg
Mean motion: 14.24712290 rev/day
Decay rate: -8.1e-07 rev/day^2
Epoch rev: 52801
Checksum: 296
Satellite: RESURS
Catalog number: 25394
Epoch time: 08192.71521008
Element set: 971
Inclination: 098.3873 deg
RA of node: 235.6025 deg
Eccentricity: 0.0002097
Arg of perigee: 105.7056 deg
Mean anomaly: 254.4355 deg
Mean motion: 14.24164173 rev/day
Decay rate: 1.4e-07 rev/day^2
Epoch rev: 51979
Checksum: 294
Satellite: FENGYUN1
Catalog number: 25730
Epoch time: 08191.94434059
Element set: 0484
Inclination: 098.7218 deg
RA of node: 166.9573 deg
Eccentricity: 0.0022300
Arg of perigee: 102.5741 deg
Mean anomaly: 257.7923 deg
Mean motion: 14.07713413 rev/day
Decay rate: 3.37e-06 rev/day^2
Epoch rev: 47216
Checksum: 298
Satellite: OKEAN-0
Catalog number: 25860
Epoch time: 08191.93282148
Element set: 0415
Inclination: 097.7502 deg
RA of node: 181.4738 deg
Eccentricity: 0.0000938
Arg of perigee: 103.1119 deg
Mean anomaly: 257.0194 deg
Mean motion: 14.73527967 rev/day
Decay rate: -3.0e-08 rev/day^2
Epoch rev: 48274
Checksum: 305
Satellite: NOAA-16
Catalog number: 26536
Epoch time: 08191.80394357
Element set: 0007
Inclination: 099.1566 deg
RA of node: 181.4769 deg
Eccentricity: 0.0010893
Arg of perigee: 157.4278 deg
Mean anomaly: 202.7341 deg
Mean motion: 14.12490031 rev/day
Decay rate: 2.59e-06 rev/day^2
Epoch rev: 40196
Checksum: 311
Satellite: NOAA-17
Catalog number: 27453
Epoch time: 08191.81838530
Element set: 0998
Inclination: 098.5327 deg
RA of node: 255.7893 deg
Eccentricity: 0.0012533
Arg of perigee: 046.5239 deg
Mean anomaly: 313.6974 deg
Mean motion: 14.23986215 rev/day
Decay rate: -4.1e-07 rev/day^2
Epoch rev: 31402
Checksum: 327
Satellite: NOAA-18
Catalog number: 28654
Epoch time: 08191.81247946
Element set: 0496
Inclination: 098.8674 deg
RA of node: 132.4651 deg
Eccentricity: 0.0013280
Arg of perigee: 249.3614 deg
Mean anomaly: 110.6125 deg
Mean motion: 14.11178037 rev/day
Decay rate: 3.65e-06 rev/day^2
Epoch rev: 16166
Checksum: 313
/EX
SB KEPS @ AMSAT $ORB08192.M
Orbital Elements 08192.MISC
HR AMSAT ORBITAL ELEMENTS FOR MANNED AND MISCELLANEOUS SATELLITES
FROM WA5QGD FORT WORTH,TX July 10, 2008
Send Subscribe/unsubscribe to KEPS at
http://www.amsat.org/mailman/listinfo/keps
BID: ORB08192.M
TO ALL RADIO AMATEURS BT
Satellite: HUBBLE
Catalog number: 20580
Epoch time: 08191.36137517
Element set: 0185
Inclination: 028.4681 deg
RA of node: 178.5942 deg
Eccentricity: 0.0003626
Arg of perigee: 255.4161 deg
Mean anomaly: 104.6027 deg
Mean motion: 15.00391268 rev/day
Decay rate: 2.36e-06 rev/day^2
Epoch rev: 79831
Checksum: 290
Satellite: PO-34
Catalog number: 25520
Epoch time: 08192.81139306
Element set: 33
Inclination: 028.4593 deg
RA of node: 020.6210 deg
Eccentricity: 0.0005600
Arg of perigee: 184.5516 deg
Mean anomaly: 175.5039 deg
Mean motion: 15.17207520 rev/day
Decay rate: 2.13e-06 rev/day^2
Epoch rev: 53675
Checksum: 263
Satellite: ISS
Catalog number: 25544
Epoch time: 08191.93326389
Element set: 0825
Inclination: 051.6412 deg
RA of node: 259.4045 deg
Eccentricity: 0.0009157
Arg of perigee: 354.0894 deg
Mean anomaly: 013.8871 deg
Mean motion: 15.75003968 rev/day
Decay rate: 7.500e-05 rev/day^2
Epoch rev: 55211
Checksum: 306
Satellite: CO-58
Catalog number: 28895
Epoch time: 08191.74156351
Element set: 65
Inclination: 098.0977 deg
RA of node: 085.2116 deg
Eccentricity: 0.0017545
Arg of perigee: 343.1644 deg
Mean anomaly: 016.8999 deg
Mean motion: 14.59681762 rev/day
Decay rate: 1.05e-06 rev/day^2
Epoch rev: 14377
Checksum: 346
Satellite: NCUBE2
Catalog number: 28897
Epoch time: 08191.70345455
Element set: 0597
Inclination: 098.0946 deg
RA of node: 085.1036 deg
Eccentricity: 0.0017211
Arg of perigee: 344.3373 deg
Mean anomaly: 015.7295 deg
Mean motion: 14.59852947 rev/day
Decay rate: 7.4e-07 rev/day^2
Epoch rev: 13605
Checksum: 326
Satellite: FCAL
Catalog number: 29667
Epoch time: 08146.34060426
Element set: 979
Inclination: 051.6107 deg
RA of node: 065.3702 deg
Eccentricity: 0.0009039
Arg of perigee: 260.8350 deg
Mean anomaly: 099.5042 deg
Mean motion: 16.53464210 rev/day
Decay rate: 1.1864717e-01 rev/day^2
Epoch rev: 8291
Checksum: 307
Satellite: FALCON
Catalog number: 30776
Epoch time: 08191.89388850
Element set: 350
Inclination: 035.4342 deg
RA of node: 015.7796 deg
Eccentricity: 0.0001392
Arg of perigee: 262.1795 deg
Mean anomaly: 097.8763 deg
Mean motion: 15.03015853 rev/day
Decay rate: 1.37e-06 rev/day^2
Epoch rev: 7356
Checksum: 314
Satellite: MAST
Catalog number: 31126
Epoch time: 08191.82175380
Element set: 0372
Inclination: 098.0379 deg
RA of node: 255.3525 deg
Eccentricity: 0.0093438
Arg of perigee: 261.6000 deg
Mean anomaly: 097.4594 deg
Mean motion: 14.53432803 rev/day
Decay rate: 2.6e-07 rev/day^2
Epoch rev: 06530
Checksum: 286
Satellite: CAPE1
Catalog number: 31130
Epoch time: 08192.89783538
Element set: 350
Inclination: 098.0382 deg
RA of node: 255.3392 deg
Eccentricity: 0.0101350
Arg of perigee: 261.5527 deg
Mean anomaly: 097.4185 deg
Mean motion: 14.51975090 rev/day
Decay rate: 5.6e-07 rev/day^2
Epoch rev: 6516
Checksum: 299
Satellite: CUTE1-7
Catalog number: 32785
Epoch time: 08192.76060503
Element set: 99
Inclination: 097.9920 deg
RA of node: 252.6221 deg
Eccentricity: 0.0016083
Arg of perigee: 060.4434 deg
Mean anomaly: 299.8380 deg
Mean motion: 14.81374619 rev/day
Decay rate: -1.4e-07 rev/day^2
Epoch rev: 1089
Checksum: 311
Satellite: COMPASS
Catalog number: 32787
Epoch time: 08191.47473730
Element set: 0090
Inclination: 097.9885 deg
RA of node: 251.3057 deg
Eccentricity: 0.0017133
Arg of perigee: 066.7716 deg
Mean anomaly: 293.5302 deg
Mean motion: 14.81431917 rev/day
Decay rate: 3.26e-06 rev/day^2
Epoch rev: 01070
Checksum: 298
Satellite: AAUSAT2
Catalog number: 32788
Epoch time: 08191.94223214
Element set: 0093
Inclination: 097.9882 deg
RA of node: 251.7816 deg
Eccentricity: 0.0017185
Arg of perigee: 068.6965 deg
Mean anomaly: 291.6061 deg
Mean motion: 14.81541325 rev/day
Decay rate: 3.56e-06 rev/day^2
Epoch rev: 01077
Checksum: 320
Satellite: DO-64
Catalog number: 32789
Epoch time: 08192.82653122
Element set: 98
Inclination: 097.9917 deg
RA of node: 252.6784 deg
Eccentricity: 0.0016969
Arg of perigee: 062.8150 deg
Mean anomaly: 297.4782 deg
Mean motion: 14.81425241 rev/day
Decay rate: 2.15e-06 rev/day^2
Epoch rev: 1090
Checksum: 333
Satellite: SEEDS
Catalog number: 32791
Epoch time: 08191.34644650
Element set: 0089
Inclination: 097.9917 deg
RA of node: 251.1892 deg
Eccentricity: 0.0017453
Arg of perigee: 065.8698 deg
Mean anomaly: 294.4347 deg
Mean motion: 14.81290055 rev/day
Decay rate: 3.44e-06 rev/day^2
Epoch rev: 01065
Checksum: 322
Satellite: CANX-2
Catalog number: 32797
Epoch time: 08191.12513628
Element set: 0042
Inclination: 097.9928 deg
RA of node: 251.0314 deg
Eccentricity: 0.0018832
Arg of perigee: 071.3703 deg
Mean anomaly: 288.9466 deg
Mean motion: 14.81819372 rev/day
Decay rate: 1.593e-05 rev/day^2
Epoch rev: 00933
Checksum: 315
Satellite: RS-30
Catalog number: 32953
Epoch time: 08192.59097477
Element set: 52
Inclination: 082.5026 deg
RA of node: 109.0384 deg
Eccentricity: 0.0017778
Arg of perigee: 201.6239 deg
Mean anomaly: 158.4089 deg
Mean motion: 12.42996762 rev/day
Decay rate: 1.0e-07 rev/day^2
Epoch rev: 595
Checksum: 315
/EX
More information about the Keps
mailing list